Home   Weather   Moscow   Past weeks

Flag for USA Past Weather in Moscow, Idaho, USA — Yesterday and Last 2 Weeks

Now
25 °F

Mostly cloudy.


Feels Like: 13 °F
Forecast: 20 / 31 °F
Wind: 14 mph from East

Location: Pullman / Moscow Regional Airport

Current Time: Dec 9, 2016 at 9:39:26 am

Latest Report: Dec 9, 2016 at 8:53 am


Visibility: 10 mi

Pressure: 30.18 "Hg (27.33 "Hg at 781m altitude)

Humidity: 81%

Dew Point: 20 °F

Location of MoscowLocation

Past Weather in Moscow — Graph

°F

Moscow Temperature Yesterday

Maximum temperature yesterday: 24 °F (at 1:53 pm)
Minimum temperature yesterday: 15 °F (at 6:53 am)
Average temperature yesterday: 20 °F

High & Low Weather Summary for the Past Weeks

 TemperatureHumidityPressure
High46 °F (Nov 26, 1:53 pm)100% (Nov 29, 7:53 am)30.52 "Hg (Nov 29, 7:53 am)
Low13 °F (Dec 7, 7:53 pm)53% (Nov 26, 6:53 pm)29.45 "Hg (Nov 26, 10:53 pm)
Average33 °F79%30.07 "Hg
* Reported Nov 24 7:53 am — Dec 9 7:53 am, Moscow, Weather by CustomWeather, © 2016

Note: Actual official high and low records may vary slightly from our data, if they occured in-between our weather recording intervals... More about our weather records

Advertising

Moscow Weather History for the Previous 24 Hours

Scroll right to see more
 ConditionsComfort  
Time TempWeatherWind HumidityBarometerVisibility
7:53 am
Fri, Dec 9
24 °FOvercast.13 mph84%30.19 "Hg10 mi
6:53 am24 °FOvercast.10 mph81%30.20 "Hg10 mi
5:53 am24 °FOvercast.6 mph84%30.21 "Hg10 mi
4:53 am23 °FMostly cloudy.7 mph85%30.21 "Hg10 mi
3:53 am23 °FOvercast.8 mph85%30.21 "Hg10 mi
2:53 am23 °FOvercast.9 mph85%30.19 "Hg10 mi
1:53 am23 °FLight snow. Overcast.10 mph85%30.19 "Hg9 mi
12:53 am22 °FMostly cloudy.13 mph85%30.17 "Hg9 mi
12:00 am22 °FLight snow. Ice fog.12 mph89%30.07 "Hg2 mi
11:02 pm
Thu, Dec 8
22 °FLight snow. Ice fog.14 mph85%30.06 "Hg3 mi
10:53 pm22 °FLight snow. Ice fog.16 mph85%30.16 "Hg1 mi
9:53 pm22 °FLight snow. Ice fog.13 mph85%30.16 "Hg4 mi
8:57 pm22 °FLight snow. Ice fog.10 mph85%30.06 "Hg2 mi
7:53 pm22 °FLight snow. Mostly cloudy.12 mph82%30.15 "Hg3 mi
6:53 pm23 °FOvercast.13 mph72%30.16 "Hg10 mi
5:53 pm23 °FOvercast.10 mph72%30.16 "Hg10 mi
4:53 pm23 °FOvercast.9 mph68%30.17 "Hg10 mi
3:53 pm22 °FScattered clouds.7 mph72%30.20 "Hg10 mi
2:53 pm23 °FPartly sunny.10 mph63%30.21 "Hg10 mi
1:53 pm24 °FSunny.13 mph57%30.21 "Hg10 mi
12:53 pm23 °FSunny.17 mph60%30.24 "Hg10 mi
11:53 am22 °FSunny.17 mph62%30.26 "Hg10 mi
10:53 am21 °FSunny.16 mph62%30.30 "Hg10 mi
9:53 am20 °FSunny.21 mph65%30.33 "Hg10 mi
Weather by CustomWeather, © 2016

See weather overviewHow to use our weather pages